Location: Unnamed
(48.5772°N, 7.7123°E)
Time: 13:26:37
(UTC+02:00)

ISS - Visible Passes

Search period start: 01 October 2022 00:00
Search period end: 11 October 2022 00:00
Orbit: 414 x 417 km, 51.6° (Epoch: 01 October)

Date Brightness Start Highest point End Pass type
(mag) Time Alt. Az. Time Alt. Az. Time Alt. Az.
01 Oct -3.1 20:31:04 10° WNW 20:34:20 47° SSW 20:35:58 24° SSE visible
02 Oct -3.5 19:42:12 10° WNW 19:45:33 70° SSW 19:48:53 10° ESE visible
02 Oct -1.2 21:19:49 10° W 21:21:48 15° SW 21:22:08 15° SW visible
03 Oct -1.7 20:30:26 10° W 20:33:09 23° SW 20:35:29 12° S visible
04 Oct -2.3 19:41:19 10° W 19:44:24 34° SW 19:47:28 10° SSE visible
05 Oct -0.6 20:31:16 10° SW 20:31:39 10° SW 20:32:02 10° SW visible
06 Oct -1.0 19:40:47 10° W 19:42:58 16° SW 19:45:07 10° S visible
